Location: Ponte Samoggia
(44.5667°N, 11.1333°E)
Time: 01:26:09
(UTC+00:00)

Daily predictions for brighter satellites

Satellite Brightness Start Highest point End
(mag) Time Altitude Azimuth Time Altitude Azimuth Time Altitude Azimuth
ADEOS II 4.3 00:02:13 10° NE 00:05:04 15° E 00:07:44 10° ESE
Cosmos 1867 4.1 00:05:01 34° WSW 00:07:02 52° NW 00:12:24 10° NNE
Cosmos 1674 Rocket 3.9 00:06:55 51° W 00:07:04 51° WNW 00:11:18 10° N
Cosmos 2221 Rocket 4.5 00:06:47 35° W 00:07:05 36° WNW 00:11:11 10° N
NOSS 2-2 (D) 4.3 00:02:21 10° NW 00:07:33 90° WSW 00:11:38 27° SE
Cosmos 1461 4.0 00:03:48 10° NW 00:06:31 32° WNW 00:06:31 32° WNW
Cosmos 2298 Rocket 4.0 00:07:41 58° SW 00:08:45 81° WNW 00:14:05 10° NNE
Cosmos 1674 4.2 00:10:51 26° WNW 00:10:51 26° WNW 00:13:48 10° NNW
USA 306 2.7 00:11:52 80° E 00:11:52 80° E 00:15:54 10° NE
Cosmos 1238 Rocket 4.5 00:11:00 10° NNW 00:12:06 18° NW 00:12:06 18° NW
Thor Agena Rocket 3.8 00:09:00 10° NNE 00:14:15 61° ESE 00:15:34 46° SSE
USA 307 2.8 00:15:20 76° ESE 00:15:20 76° ESE 00:19:21 10° ENE
ATLAS CENTAUR R/B 3.7 00:12:20 10° WNW 00:13:59 16° W 00:13:59 16° W
SL-16 R/B 3.5 00:16:08 24° SE 00:17:52 29° ESE 00:22:40 10° NE
ERBS 3.6 00:22:52 32° ENE 00:22:52 32° ENE 00:24:42 10° NE
Cosmos 1980 3.6 00:20:38 50° SSW 00:22:10 85° WNW 00:27:52 10° NNE
Cosmos 1378 Rocket 4.4 00:22:19 37° W 00:22:42 38° WNW 00:26:51 10° N
Cosmos 2333 Rocket 4.1 00:19:42 12° W 00:23:25 22° NW 00:27:48 10° N
ATLAS 5 CENTAUR R/B 2.6 00:13:59 10° NW 00:24:05 55° WSW 00:24:39 51° SW
CZ-4C R/B 3.3 00:17:45 10° NW 00:24:56 50° WSW 00:27:53 36° SSW
Cosmos 1455 Rocket 3.6 00:20:33 10° N 00:24:57 55° ENE 00:26:09 41° SE
Cosmos 332 Rocket 3.7 00:28:23 58° S 00:29:15 76° ESE 00:34:03 10° NNE
NOSS 0 Rocket 4.2 00:29:23 37° SW 00:31:52 62° WNW 00:38:04 10° NNE
USA 32 4.1 00:35:14 48° SW 00:36:32 65° W 00:41:46 10° N
Meteor 1-24 Rocket 4.2 00:34:53 32° SSE 00:37:10 53° E 00:42:28 10° NNE
Meteor 2-10 Rocket 3.6 00:33:45 10° NNW 00:39:26 79° W 00:41:17 43° S
Cosmos 1975 Rocket 3.0 00:39:39 59° S 00:40:28 83° E 00:44:57 10° N
Cosmos 839 Rocket 4.3 00:38:49 10° NW 00:45:10 60° WSW 00:49:12 28° S
USA 308 3.1 00:44:46 47° W 00:45:47 66° NNW 00:49:57 10° NE
Cosmos 2219 Rocket 4.2 00:42:56 10° W 00:46:46 19° NW 00:50:45 10° N
MOS 1 Rocket 4.4 00:44:06 16° SE 00:46:57 35° ENE 00:50:54 10° N
Cosmos 1025 Rocket 3.0 00:47:03 55° S 00:47:56 80° E 00:52:16 10° N
Cosmos 1455 3.4 00:47:34 10° N 00:51:01 35° ENE 00:52:38 24° SE
Cosmos 1269 Rocket 4.1 00:46:37 10° NNW 00:51:55 77° ENE 00:55:07 24° SSE
GP-B 3.6 00:53:07 10° N 00:57:21 45° W 00:58:07 40° WSW
Meteor 2-5 Rocket 3.7 00:55:37 37° S 00:58:02 89° WNW 01:03:45 10° N
Lacrosse 5 1.9 00:58:31 43° SSW 01:00:02 66° SE 01:05:06 10° NE
CZ-2D R/B 2.1 00:54:49 10° NNE 01:00:13 80° ESE 01:02:28 36° S
Cosmos 1300 3.9 00:58:29 10° NNW 01:01:27 28° W 01:01:27 28° W
USA 267 4.2 01:02:15 25° WSW 01:02:15 25° WSW 01:07:07 10° WNW
USA 305 3.8 01:07:08 22° W 01:09:23 42° NNW 01:13:22 10° NE
Cosmos 1544 Rocket 3.5 01:06:53 10° N 01:11:20 89° E 01:13:10 35° S
USA 229 DEB 4.5 01:05:21 10° NW 01:12:05 37° WSW 01:15:06 28° SSW
USA 229 4.5 01:05:27 10° NW 01:12:11 38° WSW 01:15:15 28° SSW
Cosmos 2237 Rocket 3.1 01:11:28 23° WSW 01:14:20 38° NW 01:19:39 10° NNE
SL-16 R/B 2.5 01:14:42 21° S 01:19:04 79° WSW 01:25:21 10° NNW
AQUA 3.8 01:14:45 10° NNE 01:19:33 78° ESE 01:21:49 31° S
Helios 1A 3.7 01:16:52 15° SE 01:20:15 53° ENE 01:24:23 10° N
Lacrosse 5 rocket 1.3 01:21:54 45° SSW 01:22:52 63° SE 01:26:52 10° NE
SAR-Lupe-2 3.5 01:19:31 10° NNE 01:23:07 82° ESE 01:24:09 44° S
SME Rocket 3.9 01:24:35 30° WSW 01:25:08 31° W 01:29:21 10° NNW
Resurs 1-4 Rocket 2.3 01:24:11 10° N 01:29:20 56° WNW 01:31:56 28° SW
Cosmos 2074 Rocket 4.0 01:23:19 10° NNW 01:29:36 73° W 01:33:59 21° S
Cosmos 1943 Rocket 2.2 01:28:55 10° NNW 01:34:33 65° WSW 01:39:28 14° S
Cosmos 2297 3.7 01:28:47 10° NNW 01:34:34 83° WSW 01:40:17 10° SSE
Cosmos 1703 3.7 01:35:52 23° SSE 01:38:08 58° E 01:42:00 10° NNE
CRYOSAT 2 4.4 01:38:47 25° S 01:41:36 67° W 01:46:29 10° N
Cosmos 2184 Rocket 4.1 01:38:19 10° NNW 01:44:26 58° W 01:48:45 20° SSW
Cosmos 2278 Rocket 3.9 01:42:04 10° WNW 01:45:01 15° W 01:45:23 14° WSW
ADEOS II 2.1 01:40:04 10° N 01:45:20 76° WNW 01:48:40 23° SSW
IDEFIX/ARIANE 42P 2.6 01:40:57 10° NNE 01:46:16 89° WNW 01:49:52 21° SSW
Cosmos 1610 Rocket 4.4 01:42:07 10° N 01:48:18 81° W 01:54:08 11° S
Cosmos 292 Rocket 3.7 01:48:10 24° SSW 01:51:05 90° W 01:55:55 10° NNE
USA 307 4.5 01:51:23 10° W 01:55:06 30° NNW 01:58:51 10° NE
Meteor 1-21 Rocket 4.5 01:51:34 13° S 01:56:37 67° E 02:02:09 10° NNE
NPP 4.3 01:52:14 10° N 01:57:15 41° WNW 02:00:35 19° SW
Cosmos 2369 Rocket 2.3 01:54:15 10° NNW 01:59:52 80° ENE 02:05:28 10° SSE
SL-16 R/B 2.8 01:58:00 19° WSW 02:01:44 45° WNW 02:07:12 10° NNE
IRS-1D 3.7 01:57:53 10° NNE 02:03:16 79° ESE 02:07:54 14° S
Cosmos 2228 2.9 01:58:55 10° N 02:03:18 82° W 02:07:33 10° S
Cosmos 614 Rocket 4.1 01:58:17 10° NNW 02:03:23 57° WSW 02:08:30 10° S
EO 1 Del DPAF 3.4 02:00:03 10° N 02:03:28 50° WNW 02:05:17 24° SW
Meteor 1-28 Rocket 3.7 02:03:37 23° SSW 02:05:26 39° W 02:08:58 10° NNW
Cosmos 2251 Rocket 3.5 02:00:10 10° NNW 02:05:27 90° WSW 02:10:45 10° SSE
Cosmos 1656 Rocket 3.8 02:03:49 10° NNW 02:09:16 76° ENE 02:14:41 10° SSE
COSMOS 2455 2.9 02:04:48 19° SW 02:09:16 73° WNW 02:15:20 10° NNE
Cosmos 1536 Rocket 4.3 02:08:03 20° SW 02:10:36 38° WNW 02:14:43 10° N
COSMOS 2441 4.4 02:13:41 10° N 02:18:33 73° WNW 02:22:48 13° SSW
Cosmos 1408 4.3 02:16:26 10° SSE 02:19:40 31° E 02:22:54 10° NNE
Nadezhda 1 Rocket 4.5 02:15:05 16° SW 02:20:01 47° WNW 02:26:04 10° N
MSX 4.0 02:17:35 10° N 02:23:15 60° WNW 02:28:25 13° SSW
Cosmos 1603 3.9 02:19:47 11° SSW 02:25:07 72° ESE 02:30:47 10° NNE
MOS 1 Rocket 4.5 02:23:22 16° SW 02:25:19 21° W 02:28:36 10° NW
Cosmos 1455 4.0 02:23:59 10° NW 02:26:11 15° W 02:27:23 13° WSW
Cosmos 1271 Rocket 3.8 02:27:00 10° NW 02:30:13 26° W 02:32:44 14° SW
Cosmos 1606 Rocket 3.7 02:30:07 10° NNW 02:34:28 57° W 02:38:44 10° S
ALOS 2.9 02:33:05 10° NNE 02:37:40 55° E 02:42:14 10° S
CZ-2D R/B 4.0 02:36:19 10° NNW 02:39:34 16° WNW 02:42:47 10° W
CZ-2C R/B 3.1 02:34:47 10° NNE 02:39:51 57° E 02:44:45 10° S
Lacrosse 5 3.2 02:38:42 10° W 02:43:20 34° NNW 02:47:59 10° NE
Helios 1B rocket 2.4 02:40:24 10° N 02:44:28 75° WNW 02:48:30 10° SSW
Cosmos 2366 rocket 4.0 02:40:37 10° N 02:46:47 80° W 02:52:58 10° S
Cosmos 2341 Rocket 4.2 02:41:02 10° NNW 02:47:15 56° W 02:53:28 10° SSW
BREEZE-M DEB (TANK) 2.3 02:47:24 10° WSW 02:51:56 77° SSE 02:54:11 10° ENE
Meteor 1-11 4.4 02:47:27 10° S 02:53:16 89° E 02:59:06 10° N
Cosmos 407 Rocket 3.6 02:48:06 10° NNW 02:53:22 62° WSW 02:58:32 10° S
SL-8 Rocket 4.1 02:47:48 10° NNW 02:54:01 60° W 03:00:12 10° S
Okean 1-7 Rocket 4.2 02:50:35 10° S 02:54:55 59° E 02:59:15 10° NNE
Cosmos 1371 Rocket 4.1 02:50:04 10° SSW 02:55:14 86° ESE 03:00:27 10° NNE
Cosmos 1328 4.5 02:52:33 10° SW 02:56:15 38° WNW 03:00:00 10° N
Cosmos 1943 3.4 02:51:02 10° SW 02:56:39 60° WNW 03:02:18 10° NNE
Genesis I 3.2 02:57:03 10° NW 03:01:05 65° WSW 03:05:00 10° SSE
Lacrosse 5 rocket 2.9 02:58:50 10° W 03:02:14 27° NNW 03:05:48 10° NNE
Meteor 1-29 3.2 03:00:18 10° NNE 03:03:33 66° ESE 03:06:47 10° S
SL-16 R/B 4.3 03:01:10 10° WSW 03:03:37 12° W 03:06:06 10° WNW
Cosmos 1140 Rocket 3.8 02:59:14 10° NNW 03:04:16 47° WSW 03:09:14 10° S
